SCP
0 0 0 0 0 0 0 0 0 0 0 0 0 0 0 0 0 0 0 0 0 0 0 0 0 0 0 0 0 0 0 0 0 0 0 0 0 0 0 0 0 0 0
0 0 0 0 0 0 0 0 0 0 0 0 0 0 0 0 0 0 0 0 0 0 0 0 0 0 0 0 0 0 0 0 0 0 0 0 0 0 0 0 0 0 0
0 0 0 0 0 0 0 0 0 0 0 0 0 0 0 0 0 0 0 0 0 0 0 0 0 0 0 0 0 0 0 0 0 0 0 0 0 0 0 0 0 0 0
0 0 0 0 0 0 0 0 0 0 0 0 0 0 0 0 0 0 0 0 0 0 0 0 0 0 0 0 0 0 0 0 0 0 0 0 0 0 0 0 0 0 0
0 0 0 0 0 0 0 0 0 0 0 0 0 0 0 0 0 0 0 0 0 0 0 0 0 0 0 0 0 0 0 0 0 0 0 0 0 0 0 0 0 0 0
0 0 0 0 0 0 0 0 0 0 0 0 0 0 0 0 0 0 0 0 0 0 0 0 0 0 0 0 0 0 0 0 0 0 0 0 0 0 0 0 0 0 0
0 0 0 0 0 0 0 0 0 0 0 0 0 0 0 0 0 0 0 0 0 0 0 0 0 0 0 0 0 0 0 0 0 0 0 0 0 0 0 0 0 0 0
0 0 0 0 0 0 0 0 0 0 0 0 0 0 0 0 0 0 0 0 0 0 0 0 0 0 0 0 0 0 0 0 0 0 0 0 0 0 0 0 0 0 0
0 0 0 0 0 0 0 0 0 0 0 0 0 0 0 0 0 0 0 0 0 0 0 0 0 0 0 0 0 0 0 0 0 0 0 0 0 0 0 0 0 0 0
0 0 0 0 0 0 0 0 0 0 0 0 0 0 0 0 0 0 0 0 0 0 0 0 0 0 0 0 0 0 0 0 0 0 0 0 0 0 0 0 0 0 0
0 0 0 0 0 0 0 0 0 0 0 0 0 0 0 0 -0 -0 0 0 0 0 0 0 0 0 0 0 0 0 0 0 0 0 0 0 0 0 0 0 0 0 0
0 0 0 0 0 0 0 0 0 0 0 0 0 0 0 0 0 -0 -0 0 0 0 0 0 0 0 0 0 0 0 0 0 0 0 0 0 0 0 0 0 0 0 0
0 0 0 0 0 0 0 0 0 0 0 0 0 0 0 0 0 -0 -0 -0 0 0 0 0 0 0 0 0 0 0 0 0 0 0 0 0 0 0 0 0 0 0 0
0 0 0 0 0 0 0 0 0 0 0 0 0 0 0 0 0 -0 -0 0 0 0 0 0 0 0 0 0 0 0 0 0 0 0 0 0 0 0 0 0 0 0 0
0 0 0 0 0 0 0 0 0 0 0 0 0 0 0 0 0 0 0 0 0 0 0 -0 0 0 0 -0 -0 0 0 0 0 0 0 0 0 0 0 0 0 0 0
0 0 0 0 0 0 0 0 0 0 0 0 0 0 0 0 0 0 0 0 0 0 0 0 0 0 0 -0 -0 -0 0 0 0 0 0 0 0 0 0 0 0 0 0
0 0 0 0 0 0 0 0 0 0 0 0 0 0 0 0 0 0 0 0 0 0 0 0 0 0 0 -0 -0 -0 0 0 0 0 0 0 0 0 0 0 0 0 0
0 0 0 0 0 0 0 0 0 0 0 0 0 0 0 0 0 0 0 0 0 0 0 0 0 0 0 -0 -0 -0 0 0 0 0 0 0 0 0 0 0 0 0 0
1 0 0 0 0 0 0 0 0 0 0 0 0 0 0 0 0 0 0 0 0 0 0 0 0 0 0 0 -0 -0 0 0 0 0 0 0 0 0 0 0 0 0 0
1 1 0 0 0 0 0 0 0 0 0 0 0 0 0 0 0 0 0 0 0 0 0 0 0 0 0 0 0 0 0 0 0 0 0 0 0 0 0 0 0 0 0
1 1 1 0 0 0 0 0 0 0 0 0 0 0 0 0 0 0 0 0 0 0 0 0 0 0 0 0 0 0 0 0 0 0 0 0 0 0 0 0 0 0 0
1 1 1 0 0 0 0 0 0 0 0 0 0 0 0 0 0 0 0 0 0 0 0 0 0 0 0 0 0 0 0 0 0 0 0 0 0 0 0 0 0 0 0
1 1 1 0 0 0 0 0 0 0 0 0 0 0 0 0 0 0 0 0 0 0 0 0 0 0 0 0 0 0 0 0 0 0 0 0 0 0 0 0 0 0 0
1 1 1 0 0 0 0 0 0 0 0 0 0 0 0 0 0 0 0 0 0 0 0 0 0 0 0 0 0 0 0 0 0 0 0 0 0 0 0 0 0 0 0
1 0 0 0 0 0 0 0 0 0 0 0 0 0 0 0 0 0 0 0 0 0 0 0 0 0 0 0 0 0 0 0 0 0 0 0 0 0 0 0 0 0 0
0 0 0 0 0 0 0 0 0 0 0 0 0 0 0 0 0 0 0 0 0 0 0 0 0 0 0 0 0 0 0 0 0 0 0 0 0 0 0 0 0 0 0
Wind_Speed
5 6 13 14 14 15 15 15 16 16 16 16 16 15 15 15 14 14 14 13 13 13 14 14 14 13 13 13 14 14 14 14 14 14 14 15 15 15 15 16 15 12 16
9 8 14 14 14 15 15 15 15 15 15 15 15 15 14 14 14 14 14 13 13 13 14 14 14 13 13 14 14 14 14 14 14 14 14 14 15 15 15 15 14 11 16
11 8 12 14 14 14 14 14 14 14 14 14 14 14 14 13 13 13 13 13 13 13 13 13 14 13 13 13 13 13 13 13 14 14 13 9 10 14 15 15 15 15 15
11 8 9 15 14 14 14 13 13 14 14 14 13 13 13 13 13 13 13 13 13 13 14 13 13 13 13 13 13 13 13 14 14 13 8 7 8 13 14 14 14 15 14
9 7 10 15 14 14 14 13 13 13 13 13 13 12 12 12 12 13 13 13 13 13 13 13 13 13 13 13 12 12 13 13 14 11 7 7 7 12 14 14 14 14 14
8 7 10 15 14 14 13 13 12 12 12 12 12 12 12 12 12 12 12 13 13 13 13 13 13 12 12 12 12 12 13 13 11 8 7 7 7 11 13 13 13 13 13
8 6 9 15 14 13 13 12 12 12 12 12 12 11 11 11 11 12 12 12 13 12 12 12 12 11 11 11 11 12 13 13 8 7 6 6 7 11 13 13 13 13 13
9 7 8 15 14 13 13 12 12 12 11 11 11 11 11 11 11 11 11 12 12 12 11 11 11 10 10 10 11 12 13 12 9 7 6 6 8 11 12 12 12 12 12
7 6 6 7 9 12 13 12 11 11 11 11 11 10 10 10 10 10 10 10 11 11 10 10 10 9 9 10 11 11 11 11 7 5 6 5 8 10 12 11 11 11 11
6 5 5 5 5 5 6 11 11 11 10 10 10 10 10 10 9 9 8 9 10 10 10 10 10 9 9 10 10 10 11 9 5 5 4 5 8 10 11 10 10 11 10
8 5 5 5 5 5 5 7 8 9 9 9 8 10 8 4 4 5 6 8 9 9 9 9 9 9 9 8 9 10 9 4 5 4 3 6 8 9 10 10 10 10 10
10 8 5 5 5 5 5 4 3 3 4 3 3 5 4 3 3 4 4 7 7 8 8 8 8 8 6 4 6 7 3 5 4 3 3 7 8 9 9 9 9 9 9
10 9 7 6 5 5 3 3 2 2 3 3 4 4 4 3 2 2 2 2 3 5 4 5 5 3 3 3 3 3 4 3 2 2 4 7 7 8 9 9 9 9 9
10 9 7 7 5 5 3 3 3 3 2 2 3 4 3 2 2 2 1 2 2 2 2 2 2 3 3 3 3 4 4 3 2 2 3 7 7 8 8 8 8 8 8
9 8 8 7 6 5 4 4 4 3 3 3 2 3 3 2 2 1 1 1 1 1 2 2 2 2 2 3 3 4 4 4 3 3 2 7 8 7 8 8 8 8 8
10 9 7 8 7 6 5 4 3 3 3 3 2 3 4 3 3 2 1 1 1 1 1 1 2 2 1 2 2 3 3 4 3 3 2 4 7 7 7 7 8 8 8
10 8 8 8 7 7 6 5 4 3 3 3 3 3 3 3 3 3 2 1 1 1 2 2 2 2 2 2 2 2 3 3 3 3 3 2 3 5 6 7 7 8 8
9 9 9 9 8 8 6 5 4 4 4 3 3 3 4 4 4 3 3 2 2 1 2 2 2 2 1 1 1 1 1 2 3 3 3 2 2 2 4 7 7 7 8
10 10 9 8 9 8 7 5 4 4 4 3 3 3 4 5 5 4 3 2 2 2 2 2 2 2 2 1 1 1 0 1 2 3 4 4 4 3 3 4 7 7 9
8 9 9 8 8 7 5 4 3 3 3 3 4 4 5 4 5 4 3 3 3 2 2 2 2 2 2 2 1 1 0 1 1 2 4 4 4 5 5 4 3 5 8
8 9 9 9 8 7 5 5 4 4 3 3 4 5 5 5 5 5 4 3 3 3 3 3 2 2 2 2 2 1 1 1 2 3 3 3 5 5 5 5 4 4 4
9 9 9 9 8 8 6 4 3 3 3 3 2 3 5 5 5 5 5 4 4 3 3 3 3 2 1 2 2 2 1 2 2 2 3 4 5 4 6 7 6 6 5
8 8 8 8 8 7 6 4 3 2 2 2 2 3 4 5 5 5 6 5 5 4 4 4 4 5 3 1 1 3 3 3 2 2 2 3 4 4 5 5 7 7 7
7 7 6 7 7 6 6 6 6 5 4 5 4 3 3 4 5 5 5 6 5 4 4 5 4 3 4 3 2 1 2 2 2 1 2 2 3 4 5 5 6 7 7
6 6 6 6 6 6 6 7 6 4 3 2 3 4 3 3 3 4 5 5 5 4 5 5 4 4 3 4 3 2 2 1 1 2 2 2 2 3 4 5 5 5 6
5 5 5 6 5 6 6 6 6 6 5 4 4 4 3 2 2 3 4 5 5 4 5 5 5 5 4 3 3 3 3 3 3 3 3 3 2 2 2 3 4 5 5
Wind_Direction
147 148 137 129 122 117 113 109 107 107 108 108 109 111 111 112 111 109 107 105 104 103 103 102 103 103 106 109 110 109 110 111 110 110 110 109 109 109 108 107 107 107 110
142 145 139 133 126 121 116 113 111 110 110 110 111 111 111 111 111 110 108 107 106 105 105 104 105 106 107 108 110 110 111 111 110 109 108 108 110 109 108 108 110 113 114
136 141 140 135 128 124 119 116 114 113 113 113 113 112 112 112 111 110 109 108 108 107 106 106 106 107 107 108 108 109 109 109 106 104 99 96 106 109 110 111 112 112 114
135 135 140 138 132 128 124 120 117 116 115 115 115 114 113 113 112 111 110 109 108 107 107 106 106 106 107 108 108 107 107 108 106 100 91 96 105 112 111 111 112 114 115
132 133 147 140 137 132 129 125 122 120 119 118 117 116 115 114 112 111 109 109 107 106 106 106 105 104 107 109 109 108 108 107 103 94 88 88 98 113 113 113 113 115 115
130 135 150 143 141 137 133 131 128 125 123 120 118 117 116 115 113 111 110 108 107 106 105 105 105 105 107 108 109 110 108 105 96 91 91 96 103 115 116 115 115 115 115
135 140 149 146 145 142 138 136 132 129 125 124 123 120 118 117 114 112 111 110 108 107 106 106 105 105 106 110 113 114 113 110 100 96 94 98 110 117 117 117 116 116 116
140 141 147 151 150 148 145 142 137 133 131 129 126 124 122 120 118 116 113 112 111 108 107 106 105 105 109 112 114 115 120 117 110 105 99 98 112 117 119 118 118 116 117
134 133 136 149 154 155 151 147 143 139 138 134 130 129 127 124 122 120 116 115 112 111 110 108 105 102 107 113 115 118 121 116 108 112 113 104 115 119 120 121 121 120 120
130 132 134 136 138 141 147 152 149 146 144 140 138 136 132 129 125 121 114 115 114 112 111 109 104 99 100 110 116 122 122 113 106 106 109 122 124 127 126 127 126 124 124
154 145 142 139 136 134 142 157 152 150 149 144 142 140 124 94 96 107 119 122 119 115 111 107 102 96 93 104 117 121 115 110 113 111 116 135 135 133 131 130 129 127 125
171 168 157 151 145 142 155 138 132 129 125 111 105 107 98 94 98 109 133 132 126 117 111 106 100 89 81 82 103 107 106 118 118 126 140 145 142 138 136 134 130 130 129
174 174 166 158 149 147 141 133 122 113 111 109 111 111 107 96 87 79 72 86 85 89 75 80 78 73 83 93 99 107 118 118 124 135 150 152 147 144 142 141 138 136 134
174 178 168 164 157 156 142 137 130 127 127 128 128 127 119 109 100 100 90 84 74 77 84 77 81 83 91 109 125 129 134 134 134 129 158 158 155 153 151 149 149 146 146
178 179 174 168 166 159 149 155 150 146 148 146 142 141 139 137 139 131 120 110 109 101 103 100 92 92 104 125 142 144 147 149 151 149 158 169 165 165 164 164 162 159 158
182 181 176 176 173 164 162 161 157 155 153 152 163 165 160 158 156 158 152 144 141 133 127 122 121 114 111 124 138 146 150 155 160 158 164 181 180 178 178 178 176 174 173
181 177 181 183 176 173 169 169 164 163 159 172 178 177 176 169 165 165 166 182 187 148 131 117 107 96 104 112 125 145 152 165 171 172 174 182 190 193 189 190 189 188 189
175 178 186 191 181 179 175 170 163 168 170 181 180 181 189 181 170 165 172 190 182 149 136 133 128 111 102 111 125 148 153 171 185 183 186 192 198 204 209 209 204 203 205
178 178 185 187 181 181 175 169 169 168 171 178 178 184 192 186 175 168 180 191 168 150 155 164 133 130 134 134 148 135 154 198 202 204 205 209 211 213 218 231 224 218 220
174 174 182 183 180 172 162 153 159 169 179 181 185 192 188 186 179 170 178 182 165 157 162 150 131 112 120 139 133 96 358 243 220 224 224 220 220 222 221 228 232 233 233
169 174 181 182 177 169 165 169 175 189 188 193 197 194 188 187 181 174 180 174 174 178 178 161 137 130 117 125 99 43 349 297 242 235 230 230 230 228 225 228 228 229 238
177 178 179 182 178 179 180 173 170 164 181 190 195 192 190 188 185 185 181 180 178 171 168 167 150 138 138 148 137 121 354 330 295 241 226 228 234 228 231 231 227 227 231
176 182 183 183 181 181 171 148 131 118 121 156 189 202 202 192 192 189 185 180 181 176 182 184 171 162 164 171 167 152 161 228 283 296 249 235 232 227 234 235 231 230 228
181 178 176 176 178 175 167 168 168 176 185 195 190 193 194 194 197 193 188 184 185 183 185 191 182 174 159 173 187 193 176 165 172 287 305 268 247 236 236 237 237 231 228
172 171 169 166 174 173 175 180 180 186 190 178 167 176 191 197 203 196 189 186 189 190 190 188 177 180 175 172 176 169 159 139 153 175 265 297 285 250 238 236 239 237 232
157 161 165 168 175 175 180 185 189 187 180 175 180 184 193 198 204 200 190 189 192 192 191 191 187 184 187 178 177 176 173 174 187 184 215 250 269 279 259 239 236 237 233